Regional Weather Roundup
Issued by NWS Wakefield, VA

Home | Current Version | Previous Version | Text Only | Print | Product List | Glossary On
Versions: 1 2 3 4 5 6 7 8 9 10 11 12 13 14 15 16 17 18 19 20 21 22 23 24 25 26 27 28 29 30 31 32 33 34 35 36 37 38 39 40 41 42 43 44 45 46 47 48 49 50
000
ASUS41 KAKQ 280415
RWRAKQ

REGIONAL WEATHER ROUNDUP
NATIONAL WEATHER SERVICE WAKEFIELD VA
1200 AM EDT SAT MAY 28 2016

Note: "fair" indicates few or no clouds below 12,000 feet with no
significant weather and/or obstructions to visibility. * = Denotes
station may not report precipitation (e.g., rain,snow,etc.),
thunder or fog.

VAZ042-051-052>054-056-280500-
NORTHERN VIRGINIA

CITY           SKY/WX    TMP DP  RH WIND       PRES   REMARKS
WASH NATIONAL  MOCLDY    76  68  76 S9        30.09R
DULLES         FAIR      76  67  73 S6        30.09S
FORT BELVOIR   FAIR      74  67  80 CALM      30.10R
QUANTICO       FAIR      74  68  81 SW7       30.11R
FREDERICKSBRG* FAIR      75  68  77 S8        30.10R
STAFFORD*      FAIR      73  65  77 CALM      30.14R
WARRENTON      FAIR      76  63  64 S3        30.10R
CULPEPER*      MOCLDY    72  69  91 CALM      30.11R
MANASSAS*      FAIR      72  70  94 CALM      30.09S
LEESBURG*      MOCLDY    73  72  94 SW3       30.10S
WINCHESTER     FAIR      70  66  88 CALM      30.11R
FRONT ROYAL*   FAIR      68  68 100 S5        30.10S
LURAY*         FAIR      68  68 100 S3        30.12S
$$

VAZ048-049-060>072-079>083-280500-
CENTRAL AND SOUTH CENTRAL VIRGINIA

CITY           SKY/WX    TMP DP  RH WIND       PRES   REMARKS
RICHMOND       FAIR      72  58  61 S9        30.13R
CHESTERFIELD*  FAIR      73  52  46 S9        30.15R
PETERSBURG*    FAIR      72  58  60 S3        30.16R
HANOVER        FAIR      74  61  63 S7        30.14R
TAPPAHANNOCK*  FAIR      74  63  68 S5        30.14R
QUINTON*       FAIR      73  61  64 S8        30.14R
CHARLOTTSVILLE FAIR      76  66  71 S8        30.12R
GORDONSVILLE*  FAIR      69  69  98 CALM      30.11S
ORANGE*        FAIR      72  70  94 CALM      30.13R
LOUISA*        CLOUDY    79  70  73 CALM      30.11R
BUMPASS*       FAIR      74  66  77 S3        30.12R
FARMVILLE*     FAIR      70  67  91 CALM      30.12R
CREWE*         FAIR      71  69  93 S3        30.15R
FORT PICKETT*  NOT AVBL
CHASE CITY*    FAIR      73  62  69 SE3       30.15R
CLARKSVILLE*   FAIR      70  63  78 S5        30.15R
SOUTH HILL*    FAIR      67  62  83 S5        30.21R
LAWRENCEVILLE* FAIR      69  60  73 CALM      30.15S
EMPORIA*       FAIR      68  59  73 SE3       30.17R
$$

VAZ088>098-280500-
SOUTHEAST VIRGINIA

CITY           SKY/WX    TMP DP  RH WIND       PRES   REMARKS
NORFOLK        FAIR      72  62  71 S12       30.15S
VIRGINIA BEACH FAIR      74  62  66 S7        30.14S
NORFOLK NAVAL  FAIR      72  63  73 S10       30.16R
WEST POINT*    FAIR      73  56  56 S6        30.15R
SALUDA*        FAIR      72  64  77 S7        30.13S
NEWPORT NEWS   FAIR      73  61  65 S13       30.15R
LANGLEY AFB    FAIR      72  63  73 S14       30.15R
FORT EUSTIS    FAIR      73  60  64 S7        30.14R
WILLIAMSBURG*  FAIR      73  61  64 S7        30.16R
HR EXEC AP*    FAIR      68  59  73 S5        30.17F
FRANKLIN*      FAIR      68  57  68 S6        30.16S
US460-WAKEFLD  FAIR      71  56  58 S5        30.15R
$$

VAZ020-022-025-037-045-280500-
WEST CENTRAL AND SOUTHWEST VIRGINIA

CITY           SKY/WX    TMP DP  RH WIND       PRES   REMARKS
STAUNTON*      FAIR      66  65  99 CALM      30.17S FOG
WAYNESBORO*    FAIR      67  65  91 CALM      30.16S
HOT SPRINGS VA FAIR      65  64  99 E3        30.26R
LYNCHBURG      FAIR      69  65  86 SW3       30.16R
DANVILLE       MOCLDY    72  63  73 VRB3      30.15R
SOUTH BOSTON*  FAIR      72  64  75 S6        30.15R
MARTINSVILLE   FAIR      62  61  98 CALM      30.17S FOG
ROANOKE        FAIR      74  64  71 SE5       30.16R
BLACKSBURG     FAIR      66  64  91 CALM      30.22S
DUBLIN*        FAIR      66  64  95 CALM      30.20S
MARION*        FAIR      64  62  93 CALM      30.23R
HILLSVILLE*    FAIR      65  62  90 SE3       30.21S
RICHLANDS*     FAIR      69  68  97 SE3       30.19S
WISE*          FAIR      68  55  64 S7        30.19S
ABINGDON*      FAIR      66  65  94 E3        30.17R
$$

MDZ021>025-VAZ099-100-280500-
SOUTHERN MARYLAND AND THE DELMARVA PENINSULA

CITY           SKY/WX    TMP DP  RH WIND       PRES   REMARKS
PATUXENT RIVER CLEAR     73  61  65 S8        30.11R
BAY BRIDGE APT PTCLDY    73  64  73 S14       30.10S
LEONARDTOWN    CLEAR     72  61  68 S5        30.14R
DOVER          CLEAR     72  61  67 S10       30.10R
GEORGETOWN     CLEAR     70  58  65 S9        30.14S
EASTON         CLEAR     74  67  78 S12       30.15S
CAMBRIDGE      CLEAR     70  63  78 S5        30.12S
SALISBURY      CLEAR     70  59  68 S8        30.14R
OCEAN CITY     CLEAR     70  62  76 SW16      30.15R
WALLOPS ISLAND FAIR      68  62  81 S14       30.16R
ACCOMACK*      FAIR      70  61  73 S13       30.15S
$$

NCZ012>017-030>032-280500-
NORTH CENTRAL AND EASTERN NORTH CAROLINA

CITY           SKY/WX    TMP DP  RH WIND       PRES   REMARKS
ROANOKE RAPIDS FAIR      68  61  77 S3        30.16R
RALEIGH        PTCLDY    72  56  57 S6        30.16R
ELIZABETH CITY CLEAR     69  64  84 SE5       30.17R
AHOSKIE*       CLEAR     67  61  80 S3        30.17R
EDENTON*       CLEAR    N/A N/A N/A SE5       30.17S
CURRITUCK*     CLEAR     69  63  81 S3        30.18R
KILL DEVIL HLS CLEAR     65  60  83 CALM      30.17S
MANTEO         NOT AVBL
CAPE HATTERAS  PTCLDY    70  65  84 CALM      30.17R
TARBORO*       FAIR      63  61  94 CALM      30.17R
GOLDSBORO      CLEAR     65  62  91 E2        30.14R
WASHINGTON     CLEAR     65  61  86 CALM      30.16S
GREENVILLE     CLEAR     66  61  82 CALM      30.18R
NEW BERN       CLEAR     61  58  90 CALM      30.16S
WILMINGTON     PTCLDY    68  65  90 N3        30.14R
$$

VAZ048-280500-
ELSEWHERE

CITY           SKY/WX    TMP DP  RH WIND       PRES   REMARKS
HARRISBURG PA  CLOUDY    74  66  76 CALM      30.07S
BALTIMORE      MOCLDY    72  65  78 CALM      30.09R
ANNAPOLIS      CLOUDY    70  64  81 S9        30.10R
ANDREWS AFB    FAIR      73  66  78 S8        30.09S
PHILADELPHIA   PTCLDY    74  62  66 S8        30.10R
HENDERSON NC   CLEAR     68  57  68 S6        30.16S
GREENSBORO     PTCLDY    73  62  68 S12       30.15R
ROCKY MOUNT    CLEAR     66  58  75 CALM      30.16R
$$

VAZ100-280500-
MARINE

STATION/POSITION TIME  TEMP    WIND        PRES    WAVE   SWELL
                       AIR SEA DIR/SP/G            HT/PER HT/PER
                 (UTC) (F)     (DEG/KT/KT) (MB)    (FT/S) (FT/S)
BRANDYWINE LGT   0300          200/ 16/ 16 1019.8S
CAPE MAY NJ      0300      68  170/  9/ 13 1019.7S
LEWES DE         0300      61  200/  7/ 15 1019.9R
15NM E FENWICK I 0350   64 60              1020.9R   3/ 4
OCEAN-CITY-INLET 0300          220/ 11/ 13 1021.2R
WACHAPREAGUE VA  0300      75  200/ 13/ 16 1020.5R
THOMAS POINT MD  0400   70 65  170/ 18/ 19 1020.3R
GOOSES REEF MD   0300   70 66  160/ 14/ 16 1020.4R   2/ 3
COVE POINT MD    0300          190/ 12/ 13 1020.0R
SOLOMONS ISLAND  0300      67  190/ 12/ 15   N/A
BISHOPS HEAD MD  0300      74  170/ 15/ 18 1019.9R
PINEY POINT MD   0300          180/ 10/ 11   N/A
POTOMAC MD       0300   70 67  190/ 12/ 14 1018.9R   2/ 3
CAMBRIDGE MD     0300      65  170/  5/  8 1018.9R
LEWISETTA VA     0300      73  210/ 10/ 12 1019.3R
RAPPAHANNOCK LGT 0300          160/ 15/ 16 1021.2R
STINGRAY PT      0300   69 67  180/ 12/ 14 1020.7R   2/ 3
YORK RVR RNG VA  0300          180/ 14/ 15 1019.8R
YORKTOWN VA      0300      67  190/  9/ 15 1020.0R
JAMESTOWN VA     0300   75 73  160/  8/ 10   N/A     0
DOMINION TERM VA 0300          170/  9/ 11 1020.7R
KIPTOPEKE VA     0300      70  170/ 16/ 18   N/A
CHES BAY BRIDGE  0300      68  160/ 12/ 14 1020.7S
CAPE HENRY VA    0300          160/  9/ 12   N/A
CHESAPEAKE LGHT  0300   70     170/ 21/ 22 1021.3F
WILLOUBY STN VA  0300          170/ 13/ 17 1021.5S
CAPE HENRY BUOY  0312      68                N/A     2/ 8
1ST LANDING BUOY 0300   71 70  160/ 10/ 12 1020.7F   1/ 3
CAPE CHARLES BUO 0326      67                N/A     2/ 3   2/ 7
OFFSHORE WE BUOY 0321      67                N/A     2/ 7   2/ 7
64NM E OF VA BCH 0350   67 63  170/  8/  8 1021.7R   2/ 8   2/ 8
DUCK PIER NC     0300      60  160/ 10/ 11 1021.0F
44100 DUCK FRF   0324      66                N/A     2/ 7
44056 DUCK FRF   0311      63                N/A     2/ 7
OREGON INLET NC  0300      78  120/  4/  6 1021.6F
HATTERAS NC      0300      74  130/  4/  6 1020.9F
DIAMOND SHLS NC  0350   77 78  120/ 10/ 12 1021.0F   3/ 8   3/ 8
CAPEC1F1C2F2C3F3C4F4C5F5C6F6C7F7C8M1C9!


USA.gov is the U.S. government's official web portal to all federal, state and local government web resources and services.